Location: Lake Sonoma
(38.7200°N, 123.0564°W)
Time: 00:24:18
(UTC-07:00)

ISS - Visible Passes

Search period start: 29 March 2015 00:00
Search period end: 08 April 2015 00:00
Orbit: 396 x 406 km, 51.6° (Epoch: 28 March)

Date Brightness Start Highest point End Pass type
(mag) Time Alt. Az. Time Alt. Az. Time Alt. Az.
29 Mar -1.0 04:58:47 18° N 04:59:34 20° NNE 05:02:05 10° ENE visible
29 Mar -3.2 06:33:01 10° WNW 06:36:12 54° SW 06:39:20 10° SE visible
30 Mar -3.2 05:40:37 19° NW 05:42:49 70° NE 05:46:02 10° ESE visible
31 Mar -1.5 04:50:05 31° ENE 04:50:05 31° ENE 04:52:21 10° ESE visible
31 Mar -2.0 06:23:02 10° W 06:25:36 21° SW 06:28:06 10° S visible
01 Apr -3.0 05:32:28 44° SSW 05:32:28 44° SSW 05:35:21 10° SSE visible
02 Apr -2.0 21:13:26 10° SW 21:15:13 28° SSW 21:15:13 28° SSW visible
03 Apr -2.1 20:20:29 10° S 20:23:10 24° SE 20:25:21 13° E visible
03 Apr -0.9 21:56:28 10° W 21:58:01 22° W 21:58:01 22° W visible
04 Apr -3.0 21:02:36 10° WSW 21:05:50 64° NW 21:07:47 22° NE visible
05 Apr -3.3 20:09:03 10° SW 20:12:15 60° SE 20:15:29 10° ENE visible
05 Apr -0.8 21:46:26 10° WNW 21:48:54 19° NNW 21:49:50 17° N visible
06 Apr -1.4 20:52:09 10° W 20:55:05 30° NNW 20:58:01 10° NNE visible
07 Apr -0.3 21:36:41 10° NW 21:38:19 13° NNW 21:39:55 10° NNE visible
